Вернуться в каталог

STARLINK-37708

АктивенСвязьVLEO
NORAD 69469·PAYLOAD·🇺🇸 United States

Запущен Jun 8, 2026 с Cape Canaveral Space Force Station

Loading…

Ближайшие Пролёты (ближайшие 24 часа)

TLE

СвежийSource: CelesTrak SupGP

Эпоха: Sep 15, 2026, 03:10 UTC

1 69469C 26127AC  26258.13243056 -.00056130  00000+0 -16585-2 0  2580
2 69469  53.1573 190.8764 0001304  86.5923  34.4832 15.34415832    17

Отслеживайте STARLINK-37708 в реальном времени с AllMySat

Download on the App Store